Waarnemingen

Advertentie
Mijn weer
Gijon, Spanje (8014): temperatuur & dauwpunt: 08.08.2018 15:00:00 - 14.08.2018 15:00:00 (CEST)Gijon, Spanje (8014): windsnelheid: 08.08.2018 15:00:00 - 14.08.2018 15:00:00 (CEST)Gijon, Spanje (8014): windrichting: 08.08.2018 15:00:00 - 14.08.2018 15:00:00 (CEST)Gijon, Spanje (8014): luchtdruk: 08.08.2018 15:00:00 - 14.08.2018 15:00:00 (CEST)Gijon, Spanje (8014): zicht: 08.08.2018 15:00:00 - 14.08.2018 15:00:00 (CEST)
Datum & Tijd tt [°C] td [°C] ff [km/u] ff [kn] dd ppp [hPa] vv [km]
14.08.2018 15:00:00 - - - - - - -
14.08.2018 14:00:00 23,2 16,3 8 4 ONO 1022,3 30
14.08.2018 13:00:00 - - - - - - -
14.08.2018 12:00:00 - - - - - - -
14.08.2018 11:00:00 - - - - - - -
14.08.2018 10:00:00 - - - - - - -
14.08.2018 09:00:00 - - - - - - -
14.08.2018 08:00:00 19,2 16,2 4 2 Z 1021,0 30
14.08.2018 07:00:00 - - - - - - -
14.08.2018 06:00:00 - - - - - - -
14.08.2018 05:00:00 - - - - - - -
14.08.2018 04:00:00 - - - - - - -
14.08.2018 03:00:00 - - - - - - -
14.08.2018 02:00:00 - - - - - - -
14.08.2018 01:00:00 - - - - - - -
14.08.2018 00:00:00 - - - - - - -
13.08.2018 23:00:00 - - - - - - -
13.08.2018 22:00:00 - - - - - - -
13.08.2018 21:00:00 - - - - - - -
13.08.2018 20:00:00 22,2 16,2 5 3 WNW 1017,7 30
13.08.2018 19:00:00 - - - - - - -
13.08.2018 18:00:00 - - - - - - -
13.08.2018 17:00:00 23,6 16,4 8 4 ONO 1017,5 30
13.08.2018 16:00:00 - - - - - - -
13.08.2018 15:00:00 - - - - - - -
13.08.2018 14:00:00 23,6 14,9 4 2 WNW 1016,0 30
13.08.2018 13:00:00 - - - - - - -
13.08.2018 12:00:00 - - - - - - -
13.08.2018 11:00:00 22,4 13,7 8 4 WZW 1016,4 30
13.08.2018 10:00:00 - - - - - - -
13.08.2018 09:00:00 - - - - - - -
13.08.2018 08:00:00 18,8 15,5 0 0 N 1015,4 30
13.08.2018 07:00:00 - - - - - - -
13.08.2018 06:00:00 - - - - - - -
13.08.2018 05:00:00 - - - - - - -
13.08.2018 04:00:00 - - - - - - -
13.08.2018 03:00:00 - - - - - - -
13.08.2018 02:00:00 - - - - - - -
13.08.2018 01:00:00 - - - - - - -
13.08.2018 00:00:00 - - - - - - -
12.08.2018 23:00:00 - - - - - - -
12.08.2018 22:00:00 - - - - - - -
12.08.2018 21:00:00 - - - - - - -
12.08.2018 20:00:00 22,4 19,4 4 2 O 1014,2 15
12.08.2018 19:00:00 - - - - - - -
12.08.2018 18:00:00 - - - - - - -
12.08.2018 17:00:00 25,4 17,3 8 4 NO 1013,9 30
12.08.2018 16:00:00 - - - - - - -
12.08.2018 15:00:00 - - - - - - -
12.08.2018 14:00:00 22,8 18,8 5 3 OZO 1015,3 25
12.08.2018 13:00:00 - - - - - - -
12.08.2018 12:00:00 - - - - - - -
12.08.2018 11:00:00 22,4 18,2 0 0 N 1015,2 25
12.08.2018 10:00:00 - - - - - - -
12.08.2018 09:00:00 - - - - - - -
12.08.2018 08:00:00 18,2 16,5 4 2 WZW 1015,7 30
12.08.2018 07:00:00 - - - - - - -
12.08.2018 06:00:00 - - - - - - -
12.08.2018 05:00:00 - - - - - - -
12.08.2018 04:00:00 - - - - - - -
12.08.2018 03:00:00 - - - - - - -
12.08.2018 02:00:00 - - - - - - -
12.08.2018 01:00:00 - - - - - - -
12.08.2018 00:00:00 - - - - - - -
11.08.2018 23:00:00 - - - - - - -
11.08.2018 22:00:00 - - - - - - -
11.08.2018 21:00:00 - - - - - - -
11.08.2018 20:00:00 23,4 18,3 5 3 ONO 1019,0 30
11.08.2018 19:00:00 - - - - - - -
11.08.2018 18:00:00 - - - - - - -
11.08.2018 17:00:00 23,6 18,3 9 5 O 1019,7 30
11.08.2018 16:00:00 - - - - - - -
11.08.2018 15:00:00 - - - - - - -
11.08.2018 14:00:00 23,2 17,0 13 7 O 1021,4 30
11.08.2018 13:00:00 - - - - - - -
11.08.2018 12:00:00 - - - - - - -
11.08.2018 11:00:00 21,2 16,2 5 3 OZO 1022,4 30
11.08.2018 10:00:00 - - - - - - -
11.08.2018 09:00:00 - - - - - - -
11.08.2018 08:00:00 17,4 14,7 5 3 ZZW 1022,6 30
11.08.2018 07:00:00 - - - - - - -
11.08.2018 06:00:00 - - - - - - -
11.08.2018 05:00:00 - - - - - - -
11.08.2018 04:00:00 - - - - - - -
11.08.2018 03:00:00 - - - - - - -
11.08.2018 02:00:00 - - - - - - -
11.08.2018 01:00:00 - - - - - - -
11.08.2018 00:00:00 - - - - - - -
10.08.2018 23:00:00 - - - - - - -
10.08.2018 22:00:00 - - - - - - -
10.08.2018 21:00:00 - - - - - - -
10.08.2018 20:00:00 23,0 15,3 11 6 O 1024,1 30
10.08.2018 19:00:00 - - - - - - -
10.08.2018 18:00:00 - - - - - - -
10.08.2018 17:00:00 23,0 14,6 11 6 O 1024,4 30
10.08.2018 16:00:00 - - - - - - -
10.08.2018 15:00:00 - - - - - - -
10.08.2018 14:00:00 21,6 14,0 8 4 N 1024,5 30
10.08.2018 13:00:00 - - - - - - -
10.08.2018 12:00:00 - - - - - - -
10.08.2018 11:00:00 18,2 12,9 9 5 ZW 1024,7 30
10.08.2018 10:00:00 - - - - - - -
10.08.2018 09:00:00 - - - - - - -
10.08.2018 08:00:00 15,8 12,5 9 5 ZW 1024,4 30
10.08.2018 07:00:00 - - - - - - -
10.08.2018 06:00:00 - - - - - - -
10.08.2018 05:00:00 - - - - - - -
10.08.2018 04:00:00 - - - - - - -
10.08.2018 03:00:00 - - - - - - -
10.08.2018 02:00:00 - - - - - - -
10.08.2018 01:00:00 - - - - - - -
10.08.2018 00:00:00 - - - - - - -
09.08.2018 23:00:00 - - - - - - -
09.08.2018 22:00:00 - - - - - - -
09.08.2018 21:00:00 - - - - - - -
09.08.2018 20:00:00 20,4 11,9 5 3 NNO 1023,2 30
09.08.2018 19:00:00 - - - - - - -
09.08.2018 18:00:00 - - - - - - -
09.08.2018 17:00:00 20,2 11,4 8 4 NNO 1022,9 30
09.08.2018 16:00:00 - - - - - - -
09.08.2018 15:00:00 - - - - - - -
09.08.2018 14:00:00 17,8 15,8 8 4 ZW 1022,2 30
09.08.2018 13:00:00 - - - - - - -
09.08.2018 12:00:00 - - - - - - -
09.08.2018 11:00:00 18,6 14,5 11 6 ZZW 1020,0 30
09.08.2018 10:00:00 - - - - - - -
09.08.2018 09:00:00 - - - - - - -
09.08.2018 08:00:00 15,8 13,6 9 5 ZZW 1017,9 30
09.08.2018 07:00:00 - - - - - - -
09.08.2018 06:00:00 - - - - - - -
09.08.2018 05:00:00 - - - - - - -
09.08.2018 04:00:00 - - - - - - -
09.08.2018 03:00:00 - - - - - - -
09.08.2018 02:00:00 - - - - - - -
09.08.2018 01:00:00 - - - - - - -
09.08.2018 00:00:00 - - - - - - -
08.08.2018 23:00:00 - - - - - - -
08.08.2018 22:00:00 - - - - - - -
08.08.2018 21:00:00 - - - - - - -
08.08.2018 20:00:00 22,2 17,3 9 5 NNO 1012,7 30
08.08.2018 19:00:00 - - - - - - -
08.08.2018 18:00:00 - - - - - - -
08.08.2018 17:00:00 23,2 18,1 8 4 O 1013,7 30
08.08.2018 16:00:00 - - - - - - -
08.08.2018 15:00:00 - - - - - - -

tt = temperatuur
td = dauwpunt
ff = windsnelheid
dd = windrichting
ppp = luchtdruk
vv = zicht

Weerstations in de omgeving